contact:dominique.lefevre@mio.osupytheas.fr, maurice.libes@osupytheas.fr, didier.mallarino@osupytheas.fr
Project:EMSO http://www.emso-fr.org/EMSO-France
Depth: 2436.0 m
Title:EMSO Ligure Ouest : Data MII capteur CSTAR
DateTime,Latitude,Longitude,Instrument_Serial,Reference_Counts,Signal_Counts,Corrected_Signal_raw_counts,Calculated_Beam_c_inverse_meters,Internal_thermistor_counts
DateTime,Latitude,Longitude,Instrument_Serial,Reference_Counts,Signal_Counts,Corrected_Signal_raw_counts,Calculated_Beam_c_inverse_meters,Internal_thermistor_counts
2022-06-27T00:01:50,42.805,6.029,CST-1368DR,4684,5015,11409,01.256,551
2022-06-27T00:04:51,42.805,6.029,CST-1368DR,4684,5013,11405,01.257,551
2022-06-27T00:07:53,42.805,6.029,CST-1368DR,4684,5005,11387,01.263,551
2022-06-27T00:10:54,42.805,6.029,CST-1368DR,4684,5015,11408,01.256,551
2022-06-27T00:13:56,42.805,6.029,CST-1368DR,4684,5022,11424,01.250,551
2022-06-27T00:16:58,42.805,6.029,CST-1368DR,4684,5021,11422,01.251,551
2022-06-27T00:19:59,42.805,6.029,CST-1368DR,4684,5023,11426,01.250,551
2022-06-27T00:23:01,42.805,6.029,CST-1368DR,4684,5017,11413,01.254,551
2022-06-27T00:26:02,42.805,6.029,CST-1368DR,4684,5024,11429,01.249,551
2022-06-27T00:29:04,42.805,6.029,CST-1368DR,4684,5017,11412,01.255,551
2022-06-27T00:32:06,42.805,6.029,CST-1368DR,4684,5026,11433,01.247,551
2022-06-27T00:35:07,42.805,6.029,CST-1368DR,4684,5022,11424,01.250,551
2022-06-27T00:38:09,42.805,6.029,CST-1368DR,4684,5015,11408,01.256,551
2022-06-27T00:41:10,42.805,6.029,CST-1368DR,4684,5019,11418,01.252,551
2022-06-27T00:44:12,42.805,6.029,CST-1368DR,4684,5016,11411,01.255,551
2022-06-27T00:47:13,42.805,6.029,CST-1368DR,4684,5021,11422,01.251,551
2022-06-27T00:50:15,42.805,6.029,CST-1368DR,4684,5022,11424,01.250,551
2022-06-27T00:53:17,42.805,6.029,CST-1368DR,4684,5015,11409,01.256,551
2022-06-27T00:56:18,42.805,6.029,CST-1368DR,4684,5015,11409,01.256,551
2022-06-27T00:59:20,42.805,6.029,CST-1368DR,4684,5014,11406,01.257,551
2022-06-27T01:02:21,42.805,6.029,CST-1368DR,4684,5023,11426,01.250,551
2022-06-27T01:05:23,42.805,6.029,CST-1368DR,4684,5020,11419,01.252,551
2022-06-27T01:08:24,42.805,6.029,CST-1368DR,4684,5010,11398,01.259,551
2022-06-27T01:11:26,42.805,6.029,CST-1368DR,4684,5012,11401,01.258,551
2022-06-27T01:14:28,42.805,6.029,CST-1368DR,4684,5015,11408,01.256,551
2022-06-27T01:17:29,42.805,6.029,CST-1368DR,4684,5018,11414,01.254,551
2022-06-27T01:20:31,42.805,6.029,CST-1368DR,4684,5006,11389,01.263,551
2022-06-27T01:23:32,42.805,6.029,CST-1368DR,4684,5001,11376,01.267,551
2022-06-27T01:26:34,42.805,6.029,CST-1368DR,4684,5002,11380,01.266,551
2022-06-27T01:29:36,42.805,6.029,CST-1368DR,4684,5007,11391,01.262,551
2022-06-27T01:32:37,42.805,6.029,CST-1368DR,4684,5009,11395,01.260,551
2022-06-27T01:35:39,42.805,6.029,CST-1368DR,4684,5008,11392,01.262,551
2022-06-27T01:38:40,42.805,6.029,CST-1368DR,4684,5003,11381,01.265,551
2022-06-27T01:41:42,42.805,6.029,CST-1368DR,4684,5003,11380,01.266,551
2022-06-27T01:44:43,42.805,6.029,CST-1368DR,4684,5018,11414,01.254,551
2022-06-27T01:47:45,42.805,6.029,CST-1368DR,4684,5012,11401,01.258,551
2022-06-27T01:50:47,42.805,6.029,CST-1368DR,4684,5012,11402,01.258,551
2022-06-27T01:53:48,42.805,6.029,CST-1368DR,4684,5008,11393,01.261,551
2022-06-27T01:56:50,42.805,6.029,CST-1368DR,4684,5002,11378,01.266,551
2022-06-27T01:59:51,42.805,6.029,CST-1368DR,4684,5010,11398,01.259,551
2022-06-27T02:02:53,42.805,6.029,CST-1368DR,4683,5004,11385,01.264,551
2022-06-27T02:05:54,42.805,6.029,CST-1368DR,4684,5000,11375,01.268,551
2022-06-27T02:08:56,42.805,6.029,CST-1368DR,4684,5009,11396,01.260,551
2022-06-27T02:11:58,42.805,6.029,CST-1368DR,4683,5009,11397,01.260,551
2022-06-27T02:14:59,42.805,6.029,CST-1368DR,4684,5014,11406,01.257,551
2022-06-27T02:18:01,42.805,6.029,CST-1368DR,4683,5007,11393,01.261,551
2022-06-27T02:21:02,42.805,6.029,CST-1368DR,4683,5009,11397,01.260,551
2022-06-27T02:24:04,42.805,6.029,CST-1368DR,4683,5008,11394,01.261,551
2022-06-27T02:27:06,42.805,6.029,CST-1368DR,4683,5004,11385,01.264,551
2022-06-27T02:30:07,42.805,6.029,CST-1368DR,4683,5004,11385,01.264,551
2022-06-27T02:33:09,42.805,6.029,CST-1368DR,4683,5008,11395,01.260,551
2022-06-27T02:36:10,42.805,6.029,CST-1368DR,4683,5010,11399,01.259,551
2022-06-27T02:39:12,42.805,6.029,CST-1368DR,4683,5013,11407,01.256,551
2022-06-27T02:42:13,42.805,6.029,CST-1368DR,4683,5012,11404,01.257,551
2022-06-27T02:45:15,42.805,6.029,CST-1368DR,4683,5014,11409,01.256,551
2022-06-27T02:48:17,42.805,6.029,CST-1368DR,4683,5014,11408,01.256,551
2022-06-27T02:51:18,42.805,6.029,CST-1368DR,4683,4993,11360,01.273,551
2022-06-27T02:54:20,42.805,6.029,CST-1368DR,4683,5016,11413,01.254,551
2022-06-27T02:57:21,42.805,6.029,CST-1368DR,4683,5005,11389,01.263,551
2022-06-27T03:00:23,42.805,6.029,CST-1368DR,4683,4995,11365,01.271,551
2022-06-27T03:03:24,42.805,6.029,CST-1368DR,4683,4989,11351,01.276,551
2022-06-27T03:06:26,42.805,6.029,CST-1368DR,4683,5013,11405,01.257,551
2022-06-27T03:09:28,42.805,6.029,CST-1368DR,4683,4997,11370,01.269,551
2022-06-27T03:12:29,42.805,6.029,CST-1368DR,4683,5015,11412,01.255,551
2022-06-27T03:15:31,42.805,6.029,CST-1368DR,4683,5012,11403,01.258,551
2022-06-27T03:18:32,42.805,6.029,CST-1368DR,4683,5026,11436,01.246,551
2022-06-27T03:21:34,42.805,6.029,CST-1368DR,4683,5037,11460,01.238,551
2022-06-27T03:24:36,42.805,6.029,CST-1368DR,4683,5038,11463,01.237,551
2022-06-27T03:27:37,42.805,6.029,CST-1368DR,4683,4995,11364,01.271,551
2022-06-27T03:30:39,42.805,6.029,CST-1368DR,4683,5020,11421,01.251,550
2022-06-27T03:33:40,42.805,6.029,CST-1368DR,4684,5044,11475,01.233,551
2022-06-27T03:36:42,42.805,6.029,CST-1368DR,4684,5061,11514,01.219,551
2022-06-27T03:39:43,42.805,6.029,CST-1368DR,4684,5051,11491,01.227,551
2022-06-27T03:42:45,42.805,6.029,CST-1368DR,4683,5017,11416,01.253,551
2022-06-27T03:45:47,42.805,6.029,CST-1368DR,4683,5005,11388,01.263,551
2022-06-27T03:48:48,42.805,6.029,CST-1368DR,4683,4998,11372,01.269,551
2022-06-27T03:51:50,42.805,6.029,CST-1368DR,4683,4999,11374,01.268,551
2022-06-27T03:54:51,42.805,6.029,CST-1368DR,4683,4995,11366,01.271,551
2022-06-27T03:57:53,42.805,6.029,CST-1368DR,4683,5009,11397,01.260,551
2022-06-27T04:00:54,42.805,6.029,CST-1368DR,4684,5020,11421,01.251,551
2022-06-27T04:03:56,42.805,6.029,CST-1368DR,4684,5023,11428,01.249,551
2022-06-27T04:06:58,42.805,6.029,CST-1368DR,4684,5020,11421,01.251,551
2022-06-27T04:09:59,42.805,6.029,CST-1368DR,4684,5019,11417,01.253,551
2022-06-27T04:13:01,42.805,6.029,CST-1368DR,4684,5026,11433,01.247,551
2022-06-27T04:16:02,42.805,6.029,CST-1368DR,4684,5019,11418,01.252,551
2022-06-27T04:19:04,42.805,6.029,CST-1368DR,4684,5024,11429,01.249,551
2022-06-27T04:22:06,42.805,6.029,CST-1368DR,4684,5019,11418,01.252,551
2022-06-27T04:25:07,42.805,6.029,CST-1368DR,4684,5010,11396,01.260,551
2022-06-27T04:28:09,42.805,6.029,CST-1368DR,4684,5019,11417,01.253,551
2022-06-27T04:31:10,42.805,6.029,CST-1368DR,4684,5022,11424,01.250,551
2022-06-27T04:34:12,42.805,6.029,CST-1368DR,4684,5012,11401,01.258,550
2022-06-27T04:37:13,42.805,6.029,CST-1368DR,4683,5012,11405,01.257,551
2022-06-27T04:40:15,42.805,6.029,CST-1368DR,4683,5013,11405,01.257,551
2022-06-27T04:43:17,42.805,6.029,CST-1368DR,4683,5014,11409,01.256,550
2022-06-27T04:46:18,42.805,6.029,CST-1368DR,4684,5015,11408,01.256,551
2022-06-27T04:49:20,42.805,6.029,CST-1368DR,4684,5012,11401,01.258,551
2022-06-27T04:52:21,42.805,6.029,CST-1368DR,4683,5006,11390,01.262,551
2022-06-27T04:55:23,42.805,6.029,CST-1368DR,4683,5013,11406,01.257,551
2022-06-27T04:58:25,42.805,6.029,CST-1368DR,4684,5012,11402,01.258,551
2022-06-27T05:01:26,42.805,6.029,CST-1368DR,4683,5012,11403,01.258,551
2022-06-27T05:04:28,42.805,6.029,CST-1368DR,4683,5015,11411,01.255,551
2022-06-27T05:07:29,42.805,6.029,CST-1368DR,4684,5016,11410,01.255,551
2022-06-27T05:10:31,42.805,6.029,CST-1368DR,4684,5015,11408,01.256,551
2022-06-27T05:13:32,42.805,6.029,CST-1368DR,4684,5018,11414,01.254,551
2022-06-27T05:16:34,42.805,6.029,CST-1368DR,4683,5013,11407,01.256,551
2022-06-27T05:19:36,42.805,6.029,CST-1368DR,4683,5017,11414,01.254,551
2022-06-27T05:22:37,42.805,6.029,CST-1368DR,4684,5012,11401,01.258,551
2022-06-27T05:25:39,42.805,6.029,CST-1368DR,4683,5010,11400,01.259,551
2022-06-27T05:28:40,42.805,6.029,CST-1368DR,4683,5008,11396,01.260,551
2022-06-27T05:31:42,42.805,6.029,CST-1368DR,4684,5009,11395,01.260,551
2022-06-27T05:34:43,42.805,6.029,CST-1368DR,4684,5022,11425,01.250,551
2022-06-27T05:37:45,42.805,6.029,CST-1368DR,4683,5014,11408,01.256,551
2022-06-27T05:40:47,42.805,6.029,CST-1368DR,4683,5010,11399,01.259,551
2022-06-27T05:43:48,42.805,6.029,CST-1368DR,4683,5009,11397,01.260,551
2022-06-27T05:46:50,42.805,6.029,CST-1368DR,4683,5010,11399,01.259,551
2022-06-27T05:49:51,42.805,6.029,CST-1368DR,4683,5010,11400,01.259,551
2022-06-27T05:52:53,42.805,6.029,CST-1368DR,4683,5012,11403,01.258,551
2022-06-27T05:55:55,42.805,6.029,CST-1368DR,4683,5009,11397,01.260,551
2022-06-27T05:58:56,42.805,6.029,CST-1368DR,4683,5008,11395,01.260,551
2022-06-27T06:01:58,42.805,6.029,CST-1368DR,4683,5007,11392,01.262,551
2022-06-27T06:04:59,42.805,6.029,CST-1368DR,4683,5007,11393,01.261,551
2022-06-27T06:08:01,42.805,6.029,CST-1368DR,4683,5010,11400,01.259,551
2022-06-27T06:11:02,42.805,6.029,CST-1368DR,4683,5007,11392,01.262,551
2022-06-27T06:14:04,42.805,6.029,CST-1368DR,4683,5003,11384,01.264,551
2022-06-27T06:17:06,42.805,6.029,CST-1368DR,4683,5004,11387,01.263,551
2022-06-27T06:20:07,42.805,6.029,CST-1368DR,4683,5007,11393,01.261,551
2022-06-27T06:23:09,42.805,6.029,CST-1368DR,4683,5006,11389,01.263,551
2022-06-27T06:26:10,42.805,6.029,CST-1368DR,4683,5002,11381,01.265,551
2022-06-27T06:29:12,42.805,6.029,CST-1368DR,4683,5004,11386,01.264,551
2022-06-27T06:32:13,42.805,6.029,CST-1368DR,4683,5002,11380,01.266,551
2022-06-27T06:35:15,42.805,6.029,CST-1368DR,4683,5002,11381,01.265,551
2022-06-27T06:38:17,42.805,6.029,CST-1368DR,4683,5003,11384,01.264,551
2022-06-27T06:41:18,42.805,6.029,CST-1368DR,4683,5003,11383,01.265,551
2022-06-27T06:44:20,42.805,6.029,CST-1368DR,4683,5003,11383,01.265,551
2022-06-27T06:47:21,42.805,6.029,CST-1368DR,4683,5004,11387,01.263,551
2022-06-27T06:50:23,42.805,6.029,CST-1368DR,4683,5001,11379,01.266,551
2022-06-27T06:53:25,42.805,6.029,CST-1368DR,4683,4997,11371,01.269,551
2022-06-27T06:56:26,42.805,6.029,CST-1368DR,4683,5001,11378,01.266,551
2022-06-27T06:59:28,42.805,6.029,CST-1368DR,4683,5009,11396,01.260,551
2022-06-27T07:02:29,42.805,6.029,CST-1368DR,4683,5002,11380,01.266,551
2022-06-27T07:05:31,42.805,6.029,CST-1368DR,4683,5003,11383,01.265,551
2022-06-27T07:08:32,42.805,6.029,CST-1368DR,4683,5001,11379,01.266,551
2022-06-27T07:11:34,42.805,6.029,CST-1368DR,4683,5004,11385,01.264,551
2022-06-27T07:14:36,42.805,6.029,CST-1368DR,4683,5002,11381,01.265,551
2022-06-27T07:17:37,42.805,6.029,CST-1368DR,4683,5006,11389,01.263,551
2022-06-27T07:20:39,42.805,6.029,CST-1368DR,4683,5007,11392,01.262,551
2022-06-27T07:23:40,42.805,6.029,CST-1368DR,4683,5003,11383,01.265,551
2022-06-27T07:26:42,42.805,6.029,CST-1368DR,4683,5003,11383,01.265,551
2022-06-27T07:29:44,42.805,6.029,CST-1368DR,4683,4999,11375,01.268,551
2022-06-27T07:32:45,42.805,6.029,CST-1368DR,4683,5000,11376,01.267,551
2022-06-27T07:35:47,42.805,6.029,CST-1368DR,4683,5000,11378,01.266,551
2022-06-27T07:38:48,42.805,6.029,CST-1368DR,4683,5000,11377,01.267,551
2022-06-27T07:41:50,42.805,6.029,CST-1368DR,4683,5000,11377,01.267,551
2022-06-27T07:44:51,42.805,6.029,CST-1368DR,4683,4998,11371,01.269,551
2022-06-27T07:47:53,42.805,6.029,CST-1368DR,4683,5000,11378,01.266,551
2022-06-27T07:50:55,42.805,6.029,CST-1368DR,4683,5003,11384,01.264,551
2022-06-27T07:53:56,42.805,6.029,CST-1368DR,4683,5002,11381,01.265,551
2022-06-27T07:56:58,42.805,6.029,CST-1368DR,4683,5000,11376,01.267,551
2022-06-27T07:59:59,42.805,6.029,CST-1368DR,4683,5006,11391,01.262,551
2022-06-27T08:03:01,42.805,6.029,CST-1368DR,4683,5002,11380,01.266,551
2022-06-27T08:06:02,42.805,6.029,CST-1368DR,4683,5008,11394,01.261,551
2022-06-27T08:09:04,42.805,6.029,CST-1368DR,4683,5002,11381,01.265,551
2022-06-27T08:12:06,42.805,6.029,CST-1368DR,4683,5002,11380,01.266,551
2022-06-27T08:15:07,42.805,6.029,CST-1368DR,4683,5007,11392,01.262,551
2022-06-27T08:18:09,42.805,6.029,CST-1368DR,4683,5006,11389,01.263,551
2022-06-27T08:21:10,42.805,6.029,CST-1368DR,4683,4999,11375,01.268,551
2022-06-27T08:24:12,42.805,6.029,CST-1368DR,4683,5002,11380,01.266,551
2022-06-27T08:27:14,42.805,6.029,CST-1368DR,4683,5002,11381,01.265,551
2022-06-27T08:30:15,42.805,6.029,CST-1368DR,4683,5006,11391,01.262,551
2022-06-27T08:33:17,42.805,6.029,CST-1368DR,4683,5003,11384,01.264,551
2022-06-27T08:36:18,42.805,6.029,CST-1368DR,4683,5008,11394,01.261,551
2022-06-27T08:39:20,42.805,6.029,CST-1368DR,4683,5007,11393,01.261,550
2022-06-27T08:42:21,42.805,6.029,CST-1368DR,4683,5008,11395,01.260,551
2022-06-27T08:45:23,42.805,6.029,CST-1368DR,4683,5004,11385,01.264,551
2022-06-27T08:48:25,42.805,6.029,CST-1368DR,4683,5005,11388,01.263,551
2022-06-27T08:51:26,42.805,6.029,CST-1368DR,4683,5007,11392,01.262,551
2022-06-27T08:54:28,42.805,6.029,CST-1368DR,4683,5006,11391,01.262,551
2022-06-27T08:57:29,42.805,6.029,CST-1368DR,4683,5004,11386,01.264,551
2022-06-27T09:00:31,42.805,6.029,CST-1368DR,4683,5007,11393,01.261,551
2022-06-27T09:03:32,42.805,6.029,CST-1368DR,4683,5007,11392,01.262,551
2022-06-27T09:06:34,42.805,6.029,CST-1368DR,4683,5004,11387,01.263,551
2022-06-27T09:09:36,42.805,6.029,CST-1368DR,4683,5002,11382,01.265,551
2022-06-27T09:12:37,42.805,6.029,CST-1368DR,4683,5009,11397,01.260,551
2022-06-27T09:15:39,42.805,6.029,CST-1368DR,4683,5007,11392,01.262,551
2022-06-27T09:18:40,42.805,6.029,CST-1368DR,4683,5004,11385,01.264,551
2022-06-27T09:21:42,42.805,6.029,CST-1368DR,4683,5011,11402,01.258,551
2022-06-27T09:24:44,42.805,6.029,CST-1368DR,4683,5006,11390,01.262,551
2022-06-27T09:27:45,42.805,6.029,CST-1368DR,4683,5014,11408,01.256,551
2022-06-27T09:30:47,42.805,6.029,CST-1368DR,4683,5004,11387,01.263,551
2022-06-27T09:33:48,42.805,6.029,CST-1368DR,4683,5007,11393,01.261,551
2022-06-27T09:36:50,42.805,6.029,CST-1368DR,4683,4996,11367,01.270,551
2022-06-27T09:39:51,42.805,6.029,CST-1368DR,4683,5018,11417,01.253,551
2022-06-27T09:42:53,42.805,6.029,CST-1368DR,4683,5002,11381,01.265,551
2022-06-27T09:45:55,42.805,6.029,CST-1368DR,4683,4998,11373,01.268,551
2022-06-27T09:48:56,42.805,6.029,CST-1368DR,4683,4993,11362,01.272,551
2022-06-27T09:51:58,42.805,6.029,CST-1368DR,4683,5005,11388,01.263,551
2022-06-27T09:54:59,42.805,6.029,CST-1368DR,4683,4995,11364,01.271,551
2022-06-27T09:58:01,42.805,6.029,CST-1368DR,4683,4995,11366,01.271,551
2022-06-27T10:01:02,42.805,6.029,CST-1368DR,4683,5006,11389,01.263,551
2022-06-27T10:04:04,42.805,6.029,CST-1368DR,4683,5000,11378,01.266,551
2022-06-27T10:07:06,42.805,6.029,CST-1368DR,4683,4997,11370,01.269,551
2022-06-27T10:10:07,42.805,6.029,CST-1368DR,4683,4996,11367,01.270,551
2022-06-27T10:13:09,42.805,6.029,CST-1368DR,4683,4991,11355,01.275,551
2022-06-27T10:16:10,42.805,6.029,CST-1368DR,4683,4957,11278,01.302,551
2022-06-27T10:19:12,42.805,6.029,CST-1368DR,4683,4985,11342,01.279,550
2022-06-27T10:22:14,42.805,6.029,CST-1368DR,4683,4969,11305,01.292,551
2022-06-27T10:25:15,42.805,6.029,CST-1368DR,4683,4990,11354,01.275,551
2022-06-27T10:28:17,42.805,6.029,CST-1368DR,4683,4994,11363,01.272,551
2022-06-27T10:31:18,42.805,6.029,CST-1368DR,4683,4985,11342,01.279,551
2022-06-27T10:34:20,42.805,6.029,CST-1368DR,4683,5000,11378,01.266,551
2022-06-27T10:37:21,42.805,6.029,CST-1368DR,4683,4998,11373,01.268,551
2022-06-27T10:40:23,42.805,6.029,CST-1368DR,4683,4999,11375,01.268,551
2022-06-27T10:43:25,42.805,6.029,CST-1368DR,4683,4996,11367,01.270,551
2022-06-27T10:46:26,42.805,6.029,CST-1368DR,4683,4998,11373,01.268,551
2022-06-27T10:49:28,42.805,6.029,CST-1368DR,4683,4995,11366,01.271,551
2022-06-27T10:52:29,42.805,6.029,CST-1368DR,4683,5002,11381,01.265,551
2022-06-27T10:55:31,42.805,6.029,CST-1368DR,4683,4998,11373,01.268,551
2022-06-27T10:58:32,42.805,6.029,CST-1368DR,4683,4996,11367,01.270,551
2022-06-27T11:01:34,42.805,6.029,CST-1368DR,4683,4999,11375,01.268,551
2022-06-27T11:04:36,42.805,6.029,CST-1368DR,4683,5003,11383,01.265,551
2022-06-27T11:07:37,42.805,6.029,CST-1368DR,4683,4997,11369,01.270,551
2022-06-27T11:10:39,42.805,6.029,CST-1368DR,4683,5003,11384,01.264,551
2022-06-27T11:13:40,42.805,6.029,CST-1368DR,4683,4995,11366,01.271,551
2022-06-27T11:16:42,42.805,6.029,CST-1368DR,4683,4995,11364,01.271,551
2022-06-27T11:19:44,42.805,6.029,CST-1368DR,4683,4995,11364,01.271,551
2022-06-27T11:22:45,42.805,6.029,CST-1368DR,4683,4993,11360,01.273,551
2022-06-27T11:25:47,42.805,6.029,CST-1368DR,4683,4993,11360,01.273,551
2022-06-27T11:28:48,42.805,6.029,CST-1368DR,4683,4996,11367,01.270,551
2022-06-27T11:31:50,42.805,6.029,CST-1368DR,4683,4993,11360,01.273,551
2022-06-27T11:34:51,42.805,6.029,CST-1368DR,4683,4995,11364,01.271,551
2022-06-27T11:37:53,42.805,6.029,CST-1368DR,4683,4993,11362,01.272,551
2022-06-27T11:40:55,42.805,6.029,CST-1368DR,4683,4996,11367,01.270,551
2022-06-27T11:43:56,42.805,6.029,CST-1368DR,4683,4997,11369,01.270,551
2022-06-27T11:46:58,42.805,6.029,CST-1368DR,4683,4996,11368,01.270,551
2022-06-27T11:49:59,42.805,6.029,CST-1368DR,4683,5003,11383,01.265,551
2022-06-27T11:53:01,42.805,6.029,CST-1368DR,4683,5005,11388,01.263,551
2022-06-27T11:56:02,42.805,6.029,CST-1368DR,4683,4999,11375,01.268,551
2022-06-27T11:59:04,42.805,6.029,CST-1368DR,4683,5007,11392,01.262,551
2022-06-27T12:02:06,42.805,6.029,CST-1368DR,4683,4994,11362,01.272,551
2022-06-27T12:05:07,42.805,6.029,CST-1368DR,4683,4990,11355,01.275,551
2022-06-27T12:08:09,42.805,6.029,CST-1368DR,4683,4989,11352,01.276,551
2022-06-27T12:11:10,42.805,6.029,CST-1368DR,4683,5001,11378,01.266,551
2022-06-27T12:14:12,42.805,6.029,CST-1368DR,4683,4999,11375,01.268,551
2022-06-27T12:17:14,42.805,6.029,CST-1368DR,4683,4996,11367,01.270,551
2022-06-27T12:20:15,42.805,6.029,CST-1368DR,4683,4990,11353,01.275,551
2022-06-27T12:23:17,42.805,6.029,CST-1368DR,4683,5001,11378,01.266,551
2022-06-27T12:26:18,42.805,6.029,CST-1368DR,4683,4996,11368,01.270,551
2022-06-27T12:29:20,42.805,6.029,CST-1368DR,4683,4998,11373,01.268,551
2022-06-27T12:32:21,42.805,6.029,CST-1368DR,4683,4996,11368,01.270,551
2022-06-27T12:35:23,42.805,6.029,CST-1368DR,4683,4997,11369,01.270,551
2022-06-27T12:38:25,42.805,6.029,CST-1368DR,4683,4989,11352,01.276,551
2022-06-27T12:41:26,42.805,6.029,CST-1368DR,4683,4987,11348,01.277,551
2022-06-27T12:44:28,42.805,6.029,CST-1368DR,4683,4998,11371,01.269,551
2022-06-27T12:47:29,42.805,6.029,CST-1368DR,4683,4990,11354,01.275,551
2022-06-27T12:50:31,42.805,6.029,CST-1368DR,4683,4996,11367,01.270,551
2022-06-27T12:53:32,42.805,6.029,CST-1368DR,4683,4991,11355,01.275,551
2022-06-27T12:56:34,42.805,6.029,CST-1368DR,4683,4992,11359,01.273,551
2022-06-27T12:59:36,42.805,6.029,CST-1368DR,4683,4995,11366,01.271,551
2022-06-27T13:02:37,42.805,6.029,CST-1368DR,4683,4996,11367,01.270,551
2022-06-27T13:05:39,42.805,6.029,CST-1368DR,4683,4998,11372,01.269,551
2022-06-27T13:08:40,42.805,6.029,CST-1368DR,4683,4997,11369,01.270,551
2022-06-27T13:11:42,42.805,6.029,CST-1368DR,4683,4997,11370,01.269,551
2022-06-27T13:14:44,42.805,6.029,CST-1368DR,4683,5001,11378,01.266,550
2022-06-27T13:17:45,42.805,6.029,CST-1368DR,4683,4996,11367,01.270,551
2022-06-27T13:20:47,42.805,6.029,CST-1368DR,4683,5000,11376,01.267,551
2022-06-27T13:23:48,42.805,6.029,CST-1368DR,4683,4996,11368,01.270,551
2022-06-27T13:26:50,42.805,6.029,CST-1368DR,4683,5013,11405,01.257,551
2022-06-27T13:29:51,42.805,6.029,CST-1368DR,4683,5005,11388,01.263,551
2022-06-27T13:32:53,42.805,6.029,CST-1368DR,4683,5003,11384,01.264,551
2022-06-27T13:35:55,42.805,6.029,CST-1368DR,4683,5001,11379,01.266,551
2022-06-27T13:38:56,42.805,6.029,CST-1368DR,4683,4993,11360,01.273,551
2022-06-27T13:41:58,42.805,6.029,CST-1368DR,4683,4999,11375,01.268,551
2022-06-27T13:44:59,42.805,6.029,CST-1368DR,4683,5000,11376,01.267,551
2022-06-27T13:48:01,42.805,6.029,CST-1368DR,4683,5000,11376,01.267,551
2022-06-27T13:51:03,42.805,6.029,CST-1368DR,4683,4999,11375,01.268,551
2022-06-27T13:54:04,42.805,6.029,CST-1368DR,4683,5003,11384,01.264,551
2022-06-27T13:57:06,42.805,6.029,CST-1368DR,4683,5001,11379,01.266,550
2022-06-27T14:00:07,42.805,6.029,CST-1368DR,4683,4992,11358,01.273,551
2022-06-27T14:03:09,42.805,6.029,CST-1368DR,4683,4996,11368,01.270,551
2022-06-27T14:06:10,42.805,6.029,CST-1368DR,4683,5002,11381,01.265,551
2022-06-27T14:09:12,42.805,6.029,CST-1368DR,4683,5000,11376,01.267,551
2022-06-27T14:12:14,42.805,6.029,CST-1368DR,4683,5002,11381,01.265,551
2022-06-27T14:15:15,42.805,6.029,CST-1368DR,4683,4998,11372,01.269,551
2022-06-27T14:18:17,42.805,6.029,CST-1368DR,4683,5004,11385,01.264,551
2022-06-27T14:21:18,42.805,6.029,CST-1368DR,4683,5001,11379,01.266,551
2022-06-27T14:24:20,42.805,6.029,CST-1368DR,4683,5000,11376,01.267,551
2022-06-27T14:27:21,42.805,6.029,CST-1368DR,4683,5013,11406,01.257,551
2022-06-27T14:30:23,42.805,6.029,CST-1368DR,4682,4997,11371,01.269,551
2022-06-27T14:33:25,42.805,6.029,CST-1368DR,4683,4996,11368,01.270,551
2022-06-27T14:36:26,42.805,6.029,CST-1368DR,4683,4999,11374,01.268,551
2022-06-27T14:39:28,42.805,6.029,CST-1368DR,4683,4994,11363,01.272,551
2022-06-27T14:42:29,42.805,6.029,CST-1368DR,4683,4996,11367,01.270,551
2022-06-27T14:45:31,42.805,6.029,CST-1368DR,4683,4996,11368,01.270,551
2022-06-27T14:48:33,42.805,6.029,CST-1368DR,4683,4998,11371,01.269,551
2022-06-27T14:51:34,42.805,6.029,CST-1368DR,4683,5011,11402,01.258,551
2022-06-27T14:54:36,42.805,6.029,CST-1368DR,4683,4993,11360,01.273,551
2022-06-27T14:57:37,42.805,6.029,CST-1368DR,4683,4992,11359,01.273,551
2022-06-27T15:00:39,42.805,6.029,CST-1368DR,4682,4993,11363,01.272,551
2022-06-27T15:03:40,42.805,6.029,CST-1368DR,4683,5020,11423,01.251,550
2022-06-27T15:06:42,42.805,6.029,CST-1368DR,4683,4991,11355,01.275,551
2022-06-27T15:09:44,42.805,6.029,CST-1368DR,4683,4997,11370,01.269,551
2022-06-27T15:12:45,42.805,6.029,CST-1368DR,4683,4991,11355,01.275,551
2022-06-27T15:15:47,42.805,6.029,CST-1368DR,4683,4994,11363,01.272,551
2022-06-27T15:18:48,42.805,6.029,CST-1368DR,4683,4989,11351,01.276,551
2022-06-27T15:21:50,42.805,6.029,CST-1368DR,4682,4982,11337,01.281,551
2022-06-27T15:24:51,42.805,6.029,CST-1368DR,4683,5002,11380,01.266,551
2022-06-27T15:27:53,42.805,6.029,CST-1368DR,4683,4983,11337,01.281,551
2022-06-27T15:30:55,42.805,6.029,CST-1368DR,4682,4981,11335,01.282,550
2022-06-27T15:33:56,42.805,6.029,CST-1368DR,4683,4986,11345,01.278,551
2022-06-27T15:36:58,42.805,6.029,CST-1368DR,4683,4985,11343,01.279,551
2022-06-27T15:39:59,42.805,6.029,CST-1368DR,4683,4993,11360,01.273,551
2022-06-27T15:43:01,42.805,6.029,CST-1368DR,4683,4981,11333,01.282,551
2022-06-27T15:46:03,42.805,6.029,CST-1368DR,4683,4983,11339,01.280,551
2022-06-27T15:49:04,42.805,6.029,CST-1368DR,4683,4988,11349,01.277,551
2022-06-27T15:52:06,42.805,6.029,CST-1368DR,4683,4987,11346,01.278,551
2022-06-27T15:55:07,42.805,6.029,CST-1368DR,4683,4988,11350,01.276,551
2022-06-27T15:58:09,42.805,6.029,CST-1368DR,4683,4983,11338,01.281,551
2022-06-27T16:01:10,42.805,6.029,CST-1368DR,4683,4986,11346,01.278,551
2022-06-27T16:04:12,42.805,6.029,CST-1368DR,4682,4984,11343,01.279,550
2022-06-27T16:07:14,42.805,6.029,CST-1368DR,4683,4980,11332,01.283,551
2022-06-27T16:10:15,42.805,6.029,CST-1368DR,4682,4988,11352,01.276,551
2022-06-27T16:13:17,42.805,6.029,CST-1368DR,4683,4990,11353,01.275,551
2022-06-27T16:16:18,42.805,6.029,CST-1368DR,4683,4982,11337,01.281,551
2022-06-27T16:19:20,42.805,6.029,CST-1368DR,4683,4988,11350,01.276,551
2022-06-27T16:22:22,42.805,6.029,CST-1368DR,4683,4991,11357,01.274,551
2022-06-27T16:25:23,42.805,6.029,CST-1368DR,4683,4986,11345,01.278,551
2022-06-27T16:28:25,42.805,6.029,CST-1368DR,4683,4991,11356,01.274,551
2022-06-27T16:31:26,42.805,6.029,CST-1368DR,4683,5012,11404,01.257,551
2022-06-27T16:34:28,42.805,6.029,CST-1368DR,4683,5020,11422,01.251,551
2022-06-27T16:37:29,42.805,6.029,CST-1368DR,4683,4993,11360,01.273,551